Temperature
8 8 7 7 7 7 7 7 7 7 7 7 7 7 7 7 7 7 7 7 7 7 7 8 8 8 8 8 8 8 8 8 8 8 8 9 9 9 9 9 9 9 9
8 7 7 7 6 6 6 6 6 6 6 6 6 6 6 6 6 6 7 7 7 7 7 7 7 7 8 8 8 7 7 7 7 7 7 7 8 8 8 8 8 8 8
7 7 6 6 6 6 6 6 6 6 6 6 6 6 6 6 6 6 6 6 6 6 6 7 7 7 7 7 7 7 7 7 7 7 7 6 6 7 7 7 7 7 8
7 7 6 6 6 6 6 6 6 5 5 6 6 6 5 5 5 5 6 6 6 6 6 6 6 6 6 6 6 6 6 6 6 6 6 6 6 6 6 7 7 7 7
7 6 6 6 6 5 5 5 5 5 5 5 5 5 5 5 5 5 5 5 5 5 5 6 6 6 6 6 6 6 6 6 6 6 6 6 6 6 6 6 6 6 6
7 6 6 5 5 5 5 5 5 5 5 5 5 5 5 5 5 5 5 5 5 5 5 5 5 5 5 6 6 6 6 6 5 6 6 6 6 6 6 5 6 6 6
6 6 5 5 5 5 5 5 5 4 4 4 4 4 4 4 4 4 4 5 5 5 5 5 5 5 5 5 5 5 5 5 5 5 5 6 6 6 5 5 5 5 5
5 5 5 5 4 4 4 4 4 4 4 4 4 4 4 4 4 4 4 4 4 4 5 5 5 5 5 5 5 5 5 5 5 5 5 5 5 5 5 5 5 4 4
5 5 4 4 4 4 4 4 4 4 4 4 4 4 4 4 4 4 4 4 4 4 4 4 4 4 4 5 5 5 5 4 4 4 5 5 5 5 5 5 5 4 4
5 5 4 4 4 4 4 3 3 3 3 3 3 3 4 4 3 3 3 4 4 4 4 4 4 4 4 4 4 4 4 4 4 4 4 4 4 4 4 4 4 4 4
5 4 4 4 4 3 3 3 3 3 3 3 3 3 3 3 3 3 3 3 4 4 4 4 4 4 4 4 4 4 4 4 4 4 4 4 4 4 4 4 4 3 3
4 4 4 3 3 3 3 3 3 3 3 3 3 3 3 3 3 3 3 3 3 3 3 3 3 3 3 3 3 3 3 3 3 3 3 3 3 3 3 3 3 3 3
4 4 3 3 3 3 3 3 3 2 3 3 3 3 3 3 3 3 3 3 3 3 3 3 3 3 3 3 3 3 3 3 3 3 3 3 3 3 3 3 3 3 2
4 3 3 3 3 3 2 2 2 2 2 2 2 2 2 2 3 3 2 2 2 3 3 3 3 3 2 2 2 3 3 3 2 2 2 2 2 2 2 2 2 2 2
3 3 3 2 2 2 2 2 2 2 2 2 2 2 2 2 2 2 2 2 2 2 2 2 2 2 2 2 2 2 2 2 2 2 2 2 2 2 2 2 2 2 2
3 2 2 2 2 2 2 2 2 2 2 1 1 1 1 2 2 2 2 2 2 2 2 2 2 2 2 2 1 2 2 2 2 2 2 2 1 1 1 1 1 1 1
2 2 2 2 2 2 2 2 2 2 1 1 1 1 1 1 1 1 1 1 1 1 1 1 1 1 1 1 1 1 1 1 1 1 1 1 1 1 1 1 1 1 1
2 2 1 1 1 1 1 2 2 2 1 1 1 1 1 1 1 1 1 1 1 1 1 1 1 1 1 1 1 0 1 1 1 1 1 1 0 0 0 0 0 0 0
2 1 1 1 1 1 1 1 1 1 1 1 1 0 0 0 0 0 0 0 0 0 0 0 0 0 0 0 0 -0 0 0 0 0 0 0 -0 -0 -0 -0 -0 -0 -0
1 1 1 1 1 1 1 1 1 1 1 0 0 0 0 -0 -0 0 0 -0 -0 -0 -0 -0 -0 -1 -1 -1 -1 -1 -0 -0 -1 -0 -0 -0 -1 -1 -1 -1 -1 -1 -1
1 1 0 0 0 0 0 0 0 0 0 0 -0 -0 -0 -0 -0 -0 -0 -0 -1 -1 -1 -1 -1 -1 -1 -1 -1 -1 -1 -1 -1 -1 -1 -1 -1 -1 -1 -1 -1 -1 -1
0 0 -0 -0 -0 -0 -0 0 0 -0 -0 -1 -1 -1 -1 -1 -1 -1 -1 -1 -1 -1 -1 -2 -2 -2 -2 -2 -2 -2 -2 -2 -2 -2 -2 -2 -2 -2 -2 -1 -1 -2 -2
-0 -0 -1 -1 -1 -0 -0 -0 -0 -1 -1 -1 -1 -1 -1 -1 -1 -1 -1 -1 -1 -1 -2 -2 -2 -2 -2 -2 -2 -2 -2 -2 -2 -2 -2 -2 -2 -2 -2 -2 -2 -2 -2
-1 -1 -1 -1 -1 -1 -1 -1 -1 -1 -1 -1 -1 -1 -1 -1 -1 -1 -1 -2 -2 -2 -2 -2 -2 -2 -2 -2 -3 -3 -2 -2 -2 -2 -2 -2 -2 -2 -2 -2 -2 -2 -3
-1 -1 -2 -2 -1 -1 -1 -1 -1 -2 -2 -2 -2 -2 -2 -2 -2 -2 -2 -2 -2 -2 -2 -2 -2 -3 -3 -3 -3 -3 -3 -3 -3 -3 -3 -3 -3 -3 -3 -3 -3 -3 -3
-1 -2 -2 -2 -2 -2 -1 -2 -2 -2 -2 -2 -2 -2 -2 -2 -2 -2 -2 -2 -3 -3 -3 -3 -3 -3 -3 -3 -3 -3 -3 -3 -3 -3 -3 -3 -3 -3 -4 -4 -4 -4 -4
Wind_Speed
2 1 1 0 1 2 1 0 1 1 1 1 0 0 1 1 1 0 1 3 2 2 1 2 2 2 1 1 2 2 2 2 1 1 2 2 2 1 1 1 0 0 0
1 1 0 0 1 1 1 1 1 1 1 1 1 1 1 1 1 1 0 2 2 1 1 1 1 2 1 1 1 1 2 2 1 1 1 1 2 2 1 1 1 1 0
2 2 1 1 1 1 2 2 1 1 1 1 1 0 0 1 1 1 1 1 2 2 1 1 1 2 1 1 2 1 2 2 2 1 0 0 1 3 2 1 1 0 0
2 1 1 1 2 2 1 1 1 1 1 1 1 2 2 2 3 2 1 1 1 2 1 1 1 1 1 1 2 2 2 2 2 2 1 1 1 1 2 2 1 0 1
1 1 2 2 1 1 0 0 1 1 2 2 2 2 2 2 2 2 2 2 1 2 2 1 1 1 1 2 1 2 2 2 2 2 2 2 1 2 2 3 3 1 1
1 1 2 2 1 0 0 0 1 1 2 2 3 3 3 3 3 3 2 2 2 2 2 2 1 2 2 2 2 2 2 2 2 2 2 2 1 2 1 3 3 2 2
1 2 3 3 2 0 0 1 1 1 2 2 2 3 3 4 4 4 3 3 2 2 2 2 2 2 2 3 2 3 3 3 3 3 2 2 2 1 2 2 2 2 2
1 2 3 3 2 1 1 1 1 2 2 2 3 2 3 3 3 3 3 3 3 3 3 3 2 3 3 3 3 3 3 3 3 3 2 2 2 1 1 1 1 2 2
1 2 3 3 2 2 2 1 2 2 3 3 3 3 3 3 3 3 3 3 3 3 3 3 3 3 3 3 3 2 3 3 3 3 3 3 2 1 0 0 1 1 2
2 2 2 3 2 2 2 2 2 2 3 3 3 3 3 3 3 3 3 3 3 3 3 3 3 3 3 3 2 2 3 3 3 2 3 2 1 0 0 0 1 1 1
1 2 2 2 2 2 2 2 2 2 2 3 3 3 3 3 3 3 4 3 3 3 3 4 4 4 4 3 3 3 3 3 3 3 2 2 1 1 0 0 0 1 1
2 2 2 2 2 2 2 2 2 3 3 3 3 3 2 2 3 4 3 3 3 3 3 3 3 4 4 3 4 4 4 3 3 3 2 2 1 1 0 1 1 1 1
2 2 2 2 2 2 2 2 2 2 2 2 3 3 2 2 3 3 3 3 3 2 2 2 3 3 3 4 4 3 3 3 2 2 2 2 2 1 1 1 1 1 1
2 3 3 2 2 3 3 3 2 2 2 2 2 2 2 2 3 3 2 2 2 2 2 2 2 2 2 3 3 3 2 2 2 2 1 1 2 2 2 1 1 0 1
3 4 4 3 3 3 3 3 3 2 2 2 2 2 3 3 2 1 1 1 1 2 2 2 1 2 2 2 2 2 2 2 1 1 1 1 1 1 1 0 0 0 0
4 4 4 4 4 4 4 3 3 3 2 2 2 2 2 2 2 1 1 0 1 1 1 1 1 1 1 2 2 1 1 1 2 2 1 1 2 2 2 2 2 1 1
4 4 4 4 4 4 4 3 3 2 1 2 2 2 2 2 2 1 1 0 1 1 1 1 1 0 0 1 1 1 1 0 1 2 1 1 1 2 2 2 3 2 2
4 4 4 5 5 4 4 3 2 2 1 2 2 2 2 2 2 1 1 0 0 0 0 1 1 1 0 1 1 2 2 1 2 2 2 2 2 1 2 2 2 2 2
3 4 4 4 4 4 3 2 2 1 2 2 2 2 2 2 2 1 1 0 0 0 0 0 1 1 1 1 1 2 1 2 2 1 2 3 2 2 3 2 2 2 2
3 3 3 4 4 4 3 2 1 1 2 2 2 2 2 2 2 2 1 1 1 0 1 0 0 1 1 1 1 2 2 1 1 1 2 2 2 2 2 2 2 2 2
3 3 3 3 3 3 3 2 2 2 2 2 2 2 2 2 2 2 1 1 1 1 1 1 1 1 1 1 2 2 1 1 1 1 2 2 3 2 3 3 2 1 2
4 3 3 4 4 3 3 2 2 3 2 2 2 2 2 2 2 2 2 1 1 1 1 1 1 1 1 2 2 3 2 3 2 2 2 2 4 4 4 3 4 4 4
3 3 3 4 4 3 3 3 3 3 2 2 2 2 2 2 2 1 1 1 1 1 0 1 1 1 1 1 2 2 3 3 3 2 3 4 5 5 4 4 5 4 3
3 3 3 4 4 4 3 3 3 3 2 2 2 1 1 2 2 1 1 1 1 1 0 0 0 1 1 1 1 1 2 3 3 3 4 5 6 5 5 5 4 3 2
3 3 3 4 4 4 3 3 3 2 2 2 1 1 1 1 2 2 2 1 1 1 0 0 1 1 0 1 1 1 1 1 2 2 2 2 2 3 3 3 3 3 3
3 3 3 4 4 3 3 3 3 2 1 2 1 1 1 1 1 2 3 4 3 4 3 3 2 2 2 2 2 2 2 2 3 2 2 2 2 2 2 2 2 2 2
Wind_Direction
233 195 184 92 15 351 350 152 198 203 129 167 227 331 301 291 301 28 12 330 319 330 342 327 323 324 279 269 273 279 298 300 317 330 314 300 263 220 218 233 172 154 359
225 208 164 53 318 280 276 263 244 244 226 208 224 215 247 279 273 296 295 317 313 317 296 310 322 321 302 293 288 295 293 295 335 319 322 323 316 314 277 224 204 227 296
243 251 237 289 270 251 243 259 249 260 245 211 192 113 304 290 287 270 253 275 299 295 287 292 306 302 291 282 284 261 277 273 283 294 156 214 263 310 292 246 226 198 322
258 268 280 272 258 242 237 216 225 252 252 220 197 203 239 256 262 260 252 255 291 296 303 288 287 284 291 272 279 284 274 253 262 276 285 250 246 264 298 304 285 250 290
241 279 298 294 293 227 193 203 235 252 265 238 219 226 241 253 264 265 263 271 268 263 275 270 263 266 265 253 261 290 281 265 255 269 277 285 286 256 255 283 290 298 275
325 313 349 334 299 212 155 224 254 259 255 249 238 229 232 244 254 262 255 260 253 244 234 255 260 261 259 251 243 255 256 263 262 263 267 255 247 249 263 273 272 280 277
24 8 353 321 320 311 201 240 256 276 271 262 257 246 238 239 240 245 245 252 256 253 229 239 256 259 252 243 239 233 238 242 248 253 260 265 257 269 280 277 287 302 294
7 3 346 339 349 319 283 272 275 281 278 278 270 256 251 246 243 243 245 248 247 248 232 221 238 252 252 248 236 232 240 237 238 253 259 271 267 269 259 230 253 305 302
359 358 344 333 336 331 330 310 288 284 277 278 279 269 261 257 254 252 257 256 245 244 230 220 226 243 251 247 242 233 236 238 238 239 249 260 263 245 315 320 195 211 277
358 350 337 332 340 343 344 337 301 285 285 285 279 276 265 263 255 252 254 260 252 236 226 226 226 235 244 236 229 245 240 233 240 239 242 256 246 144 64 323 313 279 231
343 333 326 324 335 347 345 335 322 306 299 293 292 288 267 260 258 252 253 259 258 237 222 223 225 230 234 228 223 231 236 237 246 248 238 232 186 180 191 261 285 302 274
336 325 323 331 331 336 335 328 329 322 312 310 308 294 265 246 253 259 263 261 256 244 226 224 228 230 235 233 227 230 230 232 239 240 236 229 192 167 174 193 234 274 282
335 329 332 325 318 323 328 328 319 313 320 322 317 307 293 276 268 267 266 260 257 253 235 222 223 228 237 239 235 229 226 221 227 229 223 213 175 198 205 202 228 269 306
339 333 325 323 322 319 322 322 314 313 318 323 327 319 308 298 291 281 263 250 243 240 239 231 227 228 237 240 237 229 221 220 215 213 213 193 180 185 199 208 217 268 291
335 330 327 325 324 321 322 320 318 324 322 322 325 314 315 310 298 289 280 250 242 238 230 218 229 226 233 238 242 226 213 209 200 188 191 164 139 97 118 149 136 130 209
321 321 327 323 320 320 317 314 313 316 317 309 306 317 325 322 312 294 291 286 253 229 210 200 204 225 260 290 285 290 199 204 183 172 167 139 131 101 70 48 40 20 203
321 321 317 313 308 306 306 302 302 314 325 317 322 340 342 333 325 319 343 283 250 222 178 172 154 162 135 342 345 3 48 155 148 132 124 105 95 96 108 71 40 24 356
319 318 316 316 314 312 314 311 318 325 323 325 331 345 351 327 323 326 319 299 271 177 151 148 143 136 102 22 48 42 59 87 111 112 122 116 106 96 89 79 51 30 13
320 318 324 323 322 318 314 323 329 334 333 327 329 331 327 318 316 310 289 327 54 60 88 107 109 118 87 34 70 53 84 75 72 85 102 105 110 81 68 77 59 31 23
347 339 335 334 329 324 330 336 331 329 318 320 326 333 335 329 318 317 337 42 78 75 79 69 69 106 113 56 50 43 102 98 73 75 96 98 98 80 62 85 85 50 22
338 343 339 332 324 331 340 331 328 313 320 337 350 354 353 343 335 350 11 46 56 57 61 64 52 72 83 63 70 47 67 99 90 88 81 86 75 59 47 62 83 51 32
341 346 344 334 332 338 341 333 330 336 354 1 3 352 350 344 349 14 22 42 66 69 51 61 53 57 54 39 77 59 49 46 88 88 80 71 55 53 54 60 59 53 50
333 342 338 328 332 344 348 334 333 351 357 4 356 342 344 350 4 40 42 34 42 72 56 69 65 39 56 54 56 57 44 39 68 79 70 63 58 60 60 59 54 51 52
323 330 326 318 321 336 343 338 340 352 356 348 337 340 8 18 26 37 51 50 42 63 94 91 81 52 55 55 70 73 68 61 65 74 74 61 58 58 57 54 48 48 52
311 311 305 302 309 324 332 340 347 357 354 340 352 27 36 38 31 26 25 24 22 37 99 90 98 102 57 17 33 56 70 84 84 75 82 75 69 66 58 55 52 45 40
300 309 307 305 309 323 333 342 351 351 349 340 351 34 43 48 53 48 33 31 29 27 42 50 52 49 57 48 57 65 67 73 75 80 93 80 73 77 66 59 47 40 34
Height
1489 1489 1489 1488 1487 1486 1485 1484 1484 1484 1484 1484 1484 1483 1484 1484 1485 1485 1485 1485 1485 1485 1484 1485 1485 1484 1485 1485 1486 1487 1487 1487 1487 1486 1485 1486 1487 1487 1487 1487 1487 1487 1487
1486 1486 1486 1485 1484 1484 1483 1482 1482 1482 1482 1482 1482 1482 1482 1482 1482 1482 1482 1483 1482 1482 1482 1482 1482 1482 1482 1483 1483 1484 1484 1484 1484 1484 1483 1483 1484 1484 1484 1484 1484 1483 1483
1483 1483 1483 1482 1482 1481 1480 1480 1479 1479 1479 1479 1479 1479 1480 1479 1479 1479 1479 1480 1479 1479 1479 1479 1479 1480 1480 1480 1480 1481 1481 1481 1482 1482 1483 1482 1481 1481 1480 1480 1481 1481 1481
1480 1480 1480 1480 1479 1478 1478 1477 1477 1476 1476 1476 1476 1476 1476 1476 1476 1476 1476 1476 1476 1476 1476 1476 1476 1477 1477 1477 1478 1478 1479 1479 1478 1479 1480 1481 1480 1480 1478 1478 1478 1477 1477
1479 1478 1478 1477 1476 1475 1475 1474 1474 1474 1474 1473 1473 1473 1473 1473 1474 1474 1473 1473 1473 1473 1473 1473 1474 1474 1474 1474 1475 1475 1476 1476 1476 1476 1476 1477 1477 1478 1477 1475 1474 1474 1474
1476 1476 1476 1475 1474 1473 1472 1472 1471 1471 1471 1471 1471 1470 1470 1471 1471 1470 1470 1470 1470 1470 1470 1470 1470 1471 1471 1471 1471 1472 1473 1473 1473 1473 1473 1474 1474 1474 1474 1473 1472 1470 1471
1474 1474 1473 1473 1471 1470 1470 1469 1468 1468 1468 1468 1468 1468 1468 1468 1467 1467 1467 1466 1466 1467 1467 1467 1467 1467 1467 1468 1468 1469 1469 1469 1470 1470 1470 1470 1471 1471 1471 1471 1469 1468 1468
1472 1472 1472 1470 1469 1468 1467 1466 1466 1466 1465 1465 1465 1464 1464 1464 1464 1464 1464 1463 1463 1464 1464 1464 1464 1464 1464 1464 1465 1465 1465 1466 1466 1467 1467 1467 1467 1468 1468 1469 1467 1466 1465
1471 1470 1470 1468 1467 1466 1464 1464 1463 1463 1462 1461 1461 1461 1461 1461 1461 1461 1460 1460 1460 1460 1461 1461 1460 1460 1460 1461 1461 1461 1461 1462 1463 1464 1464 1464 1464 1464 1465 1465 1466 1465 1463
1469 1468 1468 1467 1465 1464 1463 1462 1461 1460 1459 1458 1458 1457 1457 1457 1457 1457 1457 1456 1456 1457 1457 1457 1457 1457 1457 1457 1457 1458 1458 1458 1459 1460 1460 1460 1460 1461 1461 1462 1463 1463 1462
1468 1467 1466 1465 1464 1462 1461 1459 1458 1457 1455 1454 1454 1453 1453 1453 1453 1453 1453 1453 1453 1453 1453 1453 1453 1453 1453 1453 1454 1454 1455 1455 1456 1456 1456 1456 1457 1457 1458 1459 1460 1460 1460
1466 1465 1464 1462 1461 1459 1458 1456 1455 1454 1452 1451 1450 1450 1450 1450 1450 1449 1449 1449 1449 1449 1450 1450 1450 1450 1450 1450 1450 1450 1451 1451 1452 1452 1453 1453 1453 1454 1455 1456 1457 1457 1457
1465 1464 1462 1460 1458 1457 1455 1454 1453 1451 1450 1448 1447 1446 1446 1446 1446 1446 1446 1446 1446 1446 1446 1446 1446 1446 1446 1446 1446 1447 1447 1448 1448 1449 1449 1450 1451 1451 1452 1453 1454 1454 1454
1463 1462 1460 1459 1457 1455 1453 1451 1450 1449 1447 1446 1444 1443 1443 1443 1443 1443 1443 1443 1443 1443 1443 1442 1443 1443 1443 1443 1443 1444 1444 1444 1445 1445 1446 1447 1448 1448 1449 1450 1450 1451 1451
1461 1460 1458 1457 1455 1453 1450 1449 1447 1446 1445 1443 1442 1441 1441 1440 1440 1439 1439 1440 1440 1439 1439 1439 1439 1440 1440 1440 1440 1440 1440 1441 1441 1442 1443 1444 1445 1446 1447 1447 1448 1448 1448
1459 1458 1456 1454 1452 1450 1448 1446 1444 1443 1442 1441 1440 1439 1438 1437 1437 1436 1436 1436 1436 1436 1436 1436 1436 1437 1437 1437 1437 1437 1437 1437 1438 1439 1440 1441 1442 1443 1444 1445 1445 1446 1446
1457 1455 1453 1452 1450 1448 1446 1444 1442 1441 1440 1439 1438 1437 1436 1435 1434 1434 1433 1433 1433 1434 1433 1433 1434 1434 1434 1434 1434 1435 1435 1435 1436 1436 1437 1438 1439 1440 1441 1442 1443 1444 1445
1454 1452 1451 1449 1447 1445 1443 1442 1440 1439 1438 1437 1436 1435 1434 1433 1432 1431 1431 1431 1431 1431 1431 1431 1431 1431 1431 1432 1432 1433 1433 1434 1434 1435 1436 1436 1437 1438 1439 1440 1440 1441 1442
1452 1451 1449 1447 1445 1442 1441 1439 1438 1437 1436 1435 1434 1433 1432 1432 1431 1430 1429 1429 1429 1429 1428 1429 1429 1429 1430 1430 1431 1431 1432 1432 1432 1433 1434 1435 1436 1436 1437 1438 1438 1438 1439
1450 1448 1447 1445 1442 1440 1439 1437 1436 1435 1434 1433 1433 1432 1431 1430 1429 1428 1427 1427 1427 1427 1426 1427 1427 1427 1428 1429 1430 1430 1430 1430 1431 1432 1432 1433 1434 1435 1435 1436 1436 1436 1436
1448 1446 1444 1442 1440 1438 1437 1435 1434 1433 1432 1432 1431 1430 1429 1428 1427 1427 1426 1425 1425 1425 1425 1425 1425 1426 1426 1427 1428 1429 1429 1429 1429 1430 1431 1432 1432 1433 1434 1434 1434 1434 1434
1445 1443 1441 1439 1438 1436 1435 1433 1432 1431 1431 1429 1428 1428 1427 1426 1426 1425 1424 1424 1424 1424 1424 1424 1424 1425 1425 1426 1427 1428 1428 1429 1429 1429 1430 1430 1431 1432 1432 1432 1432 1432 1432
1443 1441 1439 1437 1435 1434 1433 1431 1430 1429 1428 1427 1426 1425 1425 1425 1424 1424 1423 1423 1423 1423 1423 1423 1423 1424 1424 1425 1425 1426 1427 1428 1428 1428 1429 1430 1430 1430 1430 1431 1431 1431 1431
1442 1440 1438 1435 1433 1432 1431 1429 1428 1427 1426 1424 1424 1423 1423 1423 1423 1423 1423 1422 1422 1422 1422 1422 1422 1423 1423 1423 1424 1425 1426 1426 1427 1427 1428 1429 1429 1429 1429 1430 1429 1430 1430
1440 1438 1436 1434 1432 1430 1429 1428 1426 1425 1424 1423 1422 1422 1422 1422 1421 1421 1422 1422 1422 1422 1422 1421 1422 1422 1422 1423 1424 1424 1425 1425 1426 1426 1427 1428 1428 1428 1428 1428 1429 1429 1429
1437 1435 1434 1432 1430 1428 1427 1426 1425 1423 1422 1421 1421 1420 1420 1420 1420 1420 1420 1421 1421 1421 1422 1422 1422 1422 1422 1423 1423 1424 1424 1424 1425 1426 1426 1427 1427 1427 1427 1428 1428 1428 1428